| time (UTC) | temp F | wind direction | speed knots | gust knots | rain 1hr in | rain 24hr in | rain mn in | humidity % | barometer mb |
| 20260507090546 | 43 | 275 | 12.2 | 0.0 | 0.00 | 0.00 | 0.00 | 85 | 1008.5 |
| 20260507090048 | 43 | 264 | 12.2 | 0.0 | 0.00 | 0.00 | 0.00 | 84 | 1008.4 |
| 20260507085544 | 43 | 261 | 13.0 | 0.0 | 0.00 | 0.00 | 0.00 | 84 | 1008.5 |
| 20260507085046 | 43 | 258 | 11.3 | 0.0 | 0.00 | 0.00 | 0.00 | 83 | 1008.5 |
| 20260507084553 | 44 | 251 | 11.3 | 0.0 | 0.00 | 0.00 | 0.00 | 83 | 1008.5 |
| 20260507084043 | 44 | 263 | 11.3 | 0.0 | 0.00 | 0.00 | 0.00 | 82 | 1008.5 |
| 20260507083540 | 44 | 266 | 10.4 | 0.0 | 0.00 | 0.00 | 0.00 | 83 | 1008.2 |
| 20260507083040 | 44 | 265 | 10.4 | 0.0 | 0.00 | 0.00 | 0.00 | 83 | 1008.3 |
| 20260507082544 | 44 | 300 | 9.6 | 0.0 | 0.00 | 0.00 | 0.00 | 80 | 1008.4 |
| 20260507082039 | 44 | 341 | 8.7 | 0.0 | 0.00 | 0.00 | 0.00 | 79 | 1008.3 |
| 20260507081543 | 44 | 298 | 7.0 | 0.0 | 0.00 | 0.00 | 0.00 | 86 | 1008.1 |
| 20260507081042 | 44 | 317 | 8.7 | 0.0 | 0.00 | 0.00 | 0.00 | 87 | 1008.1 |
| 20260507080537 | 44 | 282 | 11.3 | 0.0 | 0.00 | 0.00 | 0.00 | 88 | 1008.2 |
| 20260507080037 | 44 | 276 | 13.0 | 0.0 | 0.00 | 0.00 | 0.00 | 88 | 1008.1 |
| 20260507075536 | 44 | 283 | 13.0 | 0.0 | 0.00 | 0.00 | 0.00 | 88 | 1008.1 |
| 20260507075036 | 44 | 294 | 12.2 | 0.0 | 0.00 | 0.00 | 0.00 | 90 | 1008.1 |
| 20260507074536 | 44 | 287 | 13.0 | 0.0 | 0.00 | 0.00 | 0.00 | 90 | 1008.2 |
| 20260507074035 | 45 | 279 | 13.0 | 0.0 | 0.00 | 0.00 | 0.00 | 92 | 1008.3 |
| 20260507073534 | 45 | 258 | 12.2 | 0.0 | 0.00 | 0.00 | 0.00 | 92 | 1008.2 |
| 20260507073034 | 44 | 263 | 11.3 | 0.0 | 0.00 | 0.00 | 0.00 | 92 | 1008.2 |
| 20260507072534 | 45 | 273 | 10.4 | 0.0 | 0.00 | 0.00 | 0.00 | 93 | 1008.1 |
| 20260507072034 | 45 | 275 | 12.2 | 0.0 | 0.00 | 0.00 | 0.00 | 92 | 1008.1 |
| 20260507071534 | 45 | 261 | 14.8 | 0.0 | 0.00 | 0.00 | 0.00 | 92 | 1008.2 |
| 20260507071038 | 45 | 271 | 15.6 | 0.0 | 0.00 | 0.00 | 0.00 | 93 | 1008.2 |
| 20260507070533 | 45 | 266 | 15.6 | 0.0 | 0.00 | 0.00 | 0.00 | 93 | 1008.2 |
| 20260507070033 | 45 | 280 | 12.2 | 0.0 | 0.00 | 0.00 | 0.00 | 94 | 1008.1 |
| 20260507065532 | 45 | 281 | 9.6 | 0.0 | 0.00 | 0.00 | 0.00 | 95 | 1008.1 |
| 20260507065032 | 45 | 261 | 10.4 | 0.0 | 0.00 | 0.00 | 0.00 | 95 | 1008.0 |
| 20260507064531 | 45 | 266 | 12.2 | 0.0 | 0.00 | 0.00 | 0.00 | 95 | 1007.9 |
| 20260507064030 | 44 | 273 | 10.4 | 0.0 | 0.00 | 0.00 | 0.00 | 95 | 1007.7 |
| 20260507063528 | 44 | 258 | 5.2 | 0.0 | 0.00 | 0.00 | 0.00 | 95 | 1007.6 |
| 20260507063028 | 44 | 254 | 1.7 | 0.0 | 0.00 | 0.00 | 0.00 | 95 | 1007.6 |
| 20260507062526 | 44 | 219 | 3.5 | 0.0 | 0.00 | 0.00 | 0.00 | 95 | 1007.6 |
| 20260507062026 | 44 | 219 | 3.5 | 0.0 | 0.00 | 0.00 | 0.00 | 95 | 1007.6 |
| 20260507061526 | 44 | 225 | 0.9 | 0.0 | 0.00 | 0.00 | 0.00 | 95 | 1007.6 |
| 20260507061027 | 44 | 150 | 0.9 | 0.0 | 0.00 | 0.00 | 0.00 | 95 | 1007.6 |
| 20260507060525 | 44 | 154 | 0.9 | 0.0 | 0.00 | 0.00 | 0.00 | 95 | 1007.6 |
| 20260507060025 | 45 | 155 | 1.7 | 0.0 | 0.00 | 0.00 | 0.00 | 95 | 1007.7 |
| 20260507055525 | 45 | 153 | 0.9 | 0.0 | 0.00 | 0.00 | 0.00 | 95 | 1007.8 |
| 20260507055027 | 45 | 184 | 0.9 | 0.0 | 0.00 | 0.00 | 0.00 | 95 | 1007.9 |
| 20260507054531 | 45 | 157 | 0.9 | 0.0 | 0.00 | 0.00 | 0.00 | 95 | 1007.9 |
| 20260507054023 | 45 | 157 | 1.7 | 0.0 | 0.00 | 0.00 | 0.00 | 95 | 1007.9 |
| 20260507053523 | 45 | 157 | 1.7 | 0.0 | 0.00 | 0.00 | 0.00 | 95 | 1007.8 |
| 20260507053023 | 45 | 136 | 1.7 | 0.0 | 0.00 | 0.00 | 0.00 | 95 | 1008.0 |
| 20260507052522 | 45 | 130 | 1.7 | 0.0 | 0.00 | 0.00 | 0.00 | 95 | 1007.8 |
| 20260507052022 | 45 | 129 | 1.7 | 0.0 | 0.00 | 0.00 | 0.00 | 95 | 1007.7 |
| 20260507051522 | 45 | 129 | 2.6 | 0.0 | 0.00 | 0.00 | 0.00 | 95 | 1007.5 |
| 20260507051021 | 45 | 140 | 3.5 | 0.0 | 0.00 | 0.00 | 0.00 | 95 | 1007.7 |
| 20260507050521 | 45 | 140 | 3.5 | 0.0 | 0.00 | 0.00 | 0.00 | 94 | 1007.8 |
| 20260507050025 | 45 | 138 | 2.6 | 0.0 | 0.00 | 0.00 | 0.00 | 95 | 1007.9 |
| 20260507045521 | 45 | 136 | 2.6 | 0.0 | 0.00 | 0.00 | 0.00 | 95 | 1008.0 |
| 20260507045020 | 45 | 146 | 1.7 | 0.0 | 0.00 | 0.00 | 0.00 | 95 | 1008.0 |
| 20260507044521 | 45 | 145 | 1.7 | 0.0 | 0.00 | 0.00 | 0.00 | 94 | 1008.0 |
| 20260507044019 | 45 | 88 | 0.9 | 0.0 | 0.00 | 0.00 | 0.00 | 94 | 1007.7 |
| 20260507043519 | 45 | 62 | 1.7 | 0.0 | 0.00 | 0.00 | 0.00 | 94 | 1007.6 |
| 20260507043023 | 45 | 224 | 4.3 | 0.0 | 0.00 | 0.00 | 0.00 | 94 | 1007.9 |
| 20260507042518 | 45 | 244 | 4.3 | 0.0 | 0.00 | 0.00 | 0.00 | 94 | 1008.3 |
| 20260507042016 | 45 | 225 | 2.6 | 0.0 | 0.00 | 0.00 | 0.00 | 94 | 1008.4 |
| 20260507041516 | 46 | 225 | 0.9 | 0.0 | 0.00 | 0.00 | 0.00 | 94 | 1008.5 |
| 20260507041014 | 46 | 220 | 0.9 | 0.0 | 0.00 | 0.00 | 0.00 | 94 | 1008.2 |
| 20260507040515 | 46 | 218 | 0.0 | 0.0 | 0.00 | 0.00 | 0.00 | 94 | 1007.9 |
| 20260507040011 | 46 | 217 | 0.9 | 0.0 | 0.00 | 0.00 | 0.00 | 94 | 1007.7 |
| 20260507035512 | 46 | 217 | 3.5 | 0.0 | 0.00 | 0.00 | 0.00 | 94 | 1007.8 |
| 20260507035011 | 46 | 231 | 6.1 | 0.0 | 0.00 | 0.00 | 0.00 | 94 | 1008.0 |
| 20260507034510 | 46 | 259 | 7.0 | 0.0 | 0.00 | 0.00 | 0.00 | 94 | 1007.9 |
| 20260507034010 | 46 | 240 | 7.0 | 0.0 | 0.00 | 0.00 | 0.00 | 94 | 1008.0 |
| 20260507033512 | 46 | 220 | 7.0 | 0.0 | 0.00 | 0.00 | 0.00 | 94 | 1007.9 |
| 20260507033009 | 46 | 246 | 7.8 | 0.0 | 0.00 | 0.00 | 0.00 | 93 | 1007.9 |
| 20260507032509 | 46 | 263 | 7.0 | 0.0 | 0.00 | 0.00 | 0.00 | 93 | 1007.9 |
| 20260507032008 | 47 | 275 | 6.1 | 0.0 | 0.00 | 0.00 | 0.00 | 93 | 1007.9 |
| 20260507031510 | 47 | 278 | 7.0 | 0.0 | 0.00 | 0.00 | 0.00 | 93 | 1007.8 |
| 20260507031007 | 47 | 279 | 8.7 | 0.0 | 0.00 | 0.00 | 0.00 | 94 | 1007.9 |
| 20260507030508 | 47 | 270 | 9.6 | 0.0 | 0.00 | 0.00 | 0.00 | 93 | 1007.9 |
| 20260507030007 | 47 | 263 | 9.6 | 0.0 | 0.00 | 0.00 | 0.00 | 93 | 1007.9 |
| 20260507025507 | 47 | 246 | 10.4 | 0.0 | 0.00 | 0.00 | 0.00 | 94 | 1008.0 |
| 20260507025005 | 47 | 252 | 9.6 | 0.0 | 0.00 | 0.00 | 0.00 | 94 | 1008.0 |
| 20260507024509 | 47 | 250 | 8.7 | 0.0 | 0.00 | 0.00 | 0.00 | 94 | 1007.9 |
| 20260507024006 | 48 | 269 | 9.6 | 0.0 | 0.00 | 0.00 | 0.00 | 94 | 1007.9 |
| 20260507023503 | 48 | 259 | 9.6 | 0.0 | 0.00 | 0.00 | 0.00 | 94 | 1008.1 |
| 20260507023003 | 48 | 246 | 7.8 | 0.0 | 0.00 | 0.00 | 0.00 | 94 | 1008.3 |
| 20260507022503 | 48 | 250 | 7.8 | 0.0 | 0.00 | 0.00 | 0.00 | 94 | 1008.2 |
| 20260507022003 | 48 | 258 | 7.8 | 0.0 | 0.00 | 0.00 | 0.00 | 94 | 1008.1 |
| 20260507021502 | 48 | 250 | 7.8 | 0.0 | 0.00 | 0.00 | 0.00 | 94 | 1008.0 |
| 20260507021002 | 48 | 261 | 8.7 | 0.0 | 0.00 | 0.00 | 0.00 | 94 | 1008.1 |
| 20260507020502 | 48 | 238 | 9.6 | 0.0 | 0.00 | 0.00 | 0.00 | 94 | 1008.2 |
| 20260507020002 | 48 | 230 | 10.4 | 0.0 | 0.00 | 0.00 | 0.00 | 94 | 1008.1 |
| 20260507015503 | 48 | 249 | 11.3 | 0.0 | 0.00 | 0.00 | 0.00 | 93 | 1008.0 |
| 20260507015001 | 48 | 258 | 10.4 | 0.0 | 0.00 | 0.00 | 0.00 | 93 | 1008.2 |
| 20260507014605 | 48 | 247 | 7.0 | 0.0 | 0.00 | 0.00 | 0.00 | 93 | 1008.2 |
| 20260507014059 | 48 | 234 | 4.3 | 0.0 | 0.00 | 0.00 | 0.00 | 93 | 1008.0 |
| 20260507013600 | 48 | 219 | 2.6 | 0.0 | 0.00 | 0.00 | 0.00 | 92 | 1008.0 |
| 20260507013059 | 49 | 223 | 2.6 | 0.0 | 0.00 | 0.00 | 0.00 | 92 | 1008.0 |
| 20260507012556 | 49 | 222 | 5.2 | 0.0 | 0.00 | 0.00 | 0.00 | 92 | 1007.8 |
| 20260507012056 | 49 | 222 | 7.0 | 0.0 | 0.00 | 0.00 | 0.00 | 92 | 1007.7 |
| 20260507011555 | 49 | 238 | 5.2 | 0.0 | 0.00 | 0.00 | 0.00 | 92 | 1007.9 |
| 20260507011056 | 49 | 223 | 5.2 | 0.0 | 0.00 | 0.00 | 0.00 | 91 | 1007.9 |
| 20260507010554 | 50 | 225 | 4.3 | 0.0 | 0.00 | 0.00 | 0.00 | 91 | 1007.7 |
| 20260507005553 | 50 | 224 | 4.3 | 0.0 | 0.00 | 0.00 | 0.00 | 90 | 1007.5 |
| 20260507005053 | 50 | 221 | 3.5 | 0.0 | 0.00 | 0.00 | 0.00 | 90 | 1007.5 |
| 20260507004602 | 50 | 351 | 3.5 | 0.0 | 0.00 | 0.00 | 0.00 | 88 | 1007.5 |
| 20260507004052 | 50 | 355 | 4.3 | 0.0 | 0.00 | 0.00 | 0.00 | 88 | 1007.5 |
| 20260507003555 | 50 | 355 | 5.2 | 0.0 | 0.00 | 0.00 | 0.00 | 89 | 1007.5 |
| 20260507003053 | 50 | 355 | 5.2 | 0.0 | 0.00 | 0.00 | 0.00 | 89 | 1007.4 |
| 20260507002551 | 50 | 350 | 5.2 | 0.0 | 0.00 | 0.00 | 0.00 | 89 | 1007.3 |
| 20260507002051 | 50 | 344 | 4.3 | 0.0 | 0.00 | 0.00 | 0.00 | 90 | 1007.3 |
| 20260507001552 | 50 | 351 | 3.5 | 0.0 | 0.00 | 0.00 | 0.00 | 91 | 1007.1 |
| 20260507001051 | 49 | 355 | 3.5 | 0.0 | 0.00 | 0.00 | 0.00 | 91 | 1006.8 |
| 20260507000551 | 50 | 315 | 4.3 | 0.0 | 0.00 | 0.00 | 0.00 | 91 | 1006.8 |
| 20260507000052 | 50 | 304 | 4.3 | 0.0 | 0.00 | 0.00 | 0.00 | 91 | 1006.8 |
| 20260506235555 | 50 | 310 | 5.2 | 0.0 | 0.00 | 0.00 | 0.00 | 89 | 1006.7 |
| 20260506235050 | 50 | 332 | 7.0 | 0.0 | 0.00 | 0.00 | 0.00 | 88 | 1006.5 |
| 20260506234552 | 49 | 348 | 6.1 | 0.0 | 0.00 | 0.00 | 0.00 | 91 | 1006.5 |
| 20260506234049 | 49 | 340 | 3.5 | 0.0 | 0.00 | 0.00 | 0.00 | 94 | 1006.4 |
| 20260506233550 | 49 | 348 | 2.6 | 0.0 | 0.00 | 0.00 | 0.00 | 95 | 1006.4 |
| 20260506233102 | 49 | 78 | 2.6 | 0.0 | 0.00 | 0.00 | 0.00 | 95 | 1006.0 |
| 20260506232547 | 49 | 75 | 2.6 | 0.0 | 0.00 | 0.00 | 0.00 | 95 | 1005.9 |
| 20260506232048 | 49 | 68 | 2.6 | 0.0 | 0.00 | 0.00 | 0.00 | 95 | 1005.8 |
| 20260506231554 | 50 | 83 | 3.5 | 0.0 | 0.00 | 0.00 | 0.00 | 95 | 1005.7 |
| 20260506231047 | 50 | 72 | 5.2 | 0.0 | 0.00 | 0.00 | 0.00 | 95 | 1005.7 |
| 20260506230547 | 50 | 63 | 10.4 | 0.0 | 0.00 | 0.00 | 0.00 | 95 | 1005.6 |
| 20260506230049 | 50 | 263 | 14.8 | 0.0 | 0.00 | 0.00 | 0.00 | 96 | 1005.5 |
| 20260506225545 | 50 | 256 | 13.0 | 0.0 | 0.00 | 0.00 | 0.00 | 95 | 1005.4 |
| 20260506225044 | 50 | 232 | 10.4 | 0.0 | 0.00 | 0.00 | 0.00 | 95 | 1005.3 |
| 20260506224544 | 50 | 221 | 8.7 | 0.0 | 0.00 | 0.00 | 0.00 | 95 | 1005.2 |
| 20260506224045 | 50 | 217 | 8.7 | 0.0 | 0.00 | 0.00 | 0.00 | 95 | 1005.2 |
| 20260506223541 | 50 | 220 | 7.8 | 0.0 | 0.00 | 0.00 | 0.00 | 95 | 1005.1 |
| 20260506223044 | 50 | 225 | 4.3 | 0.0 | 0.00 | 0.00 | 0.00 | 94 | 1005.1 |
| 20260506222538 | 50 | 219 | 1.7 | 0.0 | 0.00 | 0.00 | 0.00 | 94 | 1005.2 |
| 20260506222037 | 51 | 200 | 0.9 | 0.0 | 0.00 | 0.00 | 0.00 | 95 | 1005.0 |
| 20260506221539 | 51 | 165 | 0.9 | 0.0 | 0.00 | 0.00 | 0.00 | 94 | 1004.9 |
| 20260506221037 | 51 | 200 | 2.6 | 0.0 | 0.00 | 0.00 | 0.00 | 94 | 1004.8 |
| 20260506220536 | 51 | 158 | 4.3 | 0.0 | 0.00 | 0.00 | 0.00 | 94 | 1004.8 |
| 20260506220036 | 51 | 222 | 5.2 | 0.0 | 0.00 | 0.00 | 0.00 | 94 | 1004.7 |
| 20260506215536 | 52 | 219 | 4.3 | 0.0 | 0.00 | 0.00 | 0.00 | 94 | 1004.6 |
| 20260506215037 | 52 | 230 | 4.3 | 0.0 | 0.00 | 0.00 | 0.00 | 94 | 1004.6 |
| 20260506214541 | 52 | 171 | 7.0 | 0.0 | 0.00 | 0.00 | 0.00 | 94 | 1004.3 |
| 20260506214035 | 52 | 225 | 6.1 | 0.0 | 0.00 | 0.00 | 0.00 | 95 | 1004.4 |
| 20260506213533 | 52 | 209 | 4.3 | 0.0 | 0.00 | 0.00 | 0.00 | 95 | 1004.5 |
| 20260506213035 | 52 | 268 | 3.5 | 0.0 | 0.00 | 0.00 | 0.00 | 95 | 1004.2 |
| 20260506212533 | 52 | 261 | 1.7 | 0.0 | 0.00 | 0.00 | 0.00 | 95 | 1004.2 |
| 20260506212032 | 53 | 291 | 0.0 | 0.0 | 0.00 | 0.00 | 0.00 | 95 | 1004.2 |
| 20260506211532 | 53 | 108 | 0.0 | 0.0 | 0.00 | 0.00 | 0.00 | 95 | 1004.1 |
| 20260506211032 | 53 | 111 | 0.0 | 0.0 | 0.00 | 0.00 | 0.00 | 95 | 1004.0 |
| 20260506210532 | 53 | 111 | 0.9 | 0.0 | 0.00 | 0.00 | 0.00 | 95 | 1003.9 |
| 20260506210031 | 53 | 111 | 2.6 | 0.0 | 0.00 | 0.00 | 0.00 | 94 | 1003.9 |
| 20260506205531 | 53 | 90 | 3.5 | 0.0 | 0.00 | 0.00 | 0.00 | 95 | 1003.8 |
| 20260506205031 | 53 | 90 | 4.3 | 0.0 | 0.00 | 0.00 | 0.00 | 95 | 1003.8 |
| 20260506204532 | 54 | 57 | 4.3 | 0.0 | 0.00 | 0.00 | 0.00 | 94 | 1003.8 |
| 20260506204032 | 54 | 51 | 3.5 | 0.0 | 0.00 | 0.00 | 0.00 | 94 | 1003.7 |
| 20260506203532 | 54 | 9 | 3.5 | 0.0 | 0.00 | 0.00 | 0.00 | 94 | 1003.7 |
| 20260506203033 | 55 | 244 | 4.3 | 0.0 | 0.00 | 0.00 | 0.00 | 95 | 1003.6 |
| 20260506202532 | 55 | 250 | 5.2 | 0.0 | 0.00 | 0.00 | 0.00 | 95 | 1003.5 |
| 20260506202030 | 55 | 263 | 6.1 | 0.0 | 0.00 | 0.00 | 0.00 | 95 | 1003.6 |
| 20260506201530 | 55 | 240 | 7.8 | 0.0 | 0.00 | 0.00 | 0.00 | 95 | 1003.6 |
| 20260506201033 | 55 | 251 | 9.6 | 0.0 | 0.00 | 0.00 | 0.00 | 96 | 1003.5 |
| 20260506200529 | 56 | 245 | 7.0 | 0.0 | 0.00 | 0.00 | 0.00 | 96 | 1003.5 |
| 20260506200029 | 56 | 236 | 6.1 | 0.0 | 0.00 | 0.00 | 0.00 | 96 | 1003.4 |
| 20260506195529 | 56 | 244 | 5.2 | 0.0 | 0.00 | 0.00 | 0.00 | 96 | 1003.3 |
| 20260506195029 | 56 | 225 | 4.3 | 0.0 | 0.00 | 0.00 | 0.00 | 96 | 1003.3 |
| 20260506194529 | 56 | 242 | 4.3 | 0.0 | 0.00 | 0.00 | 0.00 | 96 | 1003.4 |
| 20260506194028 | 56 | 221 | 3.5 | 0.0 | 0.00 | 0.00 | 0.00 | 96 | 1003.3 |
| 20260506193533 | 56 | 242 | 2.6 | 0.0 | 0.00 | 0.00 | 0.00 | 96 | 1003.3 |
| 20260506193028 | 56 | 222 | 2.6 | 0.0 | 0.00 | 0.00 | 0.00 | 96 | 1003.4 |
| 20260506192528 | 56 | 220 | 2.6 | 0.0 | 0.00 | 0.00 | 0.00 | 96 | 1003.4 |
| 20260506192028 | 56 | 226 | 2.6 | 0.0 | 0.00 | 0.00 | 0.00 | 96 | 1003.4 |
| 20260506191528 | 56 | 221 | 1.7 | 0.0 | 0.00 | 0.00 | 0.00 | 96 | 1003.4 |
| 20260506191029 | 56 | 226 | 3.5 | 0.0 | 0.00 | 0.00 | 0.00 | 95 | 1003.3 |
| 20260506190527 | 56 | 271 | 4.3 | 0.0 | 0.00 | 0.00 | 0.00 | 95 | 1003.4 |
| 20260506190028 | 56 | 284 | 2.6 | 0.0 | 0.00 | 0.00 | 0.00 | 95 | 1003.3 |
| 20260506185530 | 56 | 281 | 1.7 | 0.0 | 0.00 | 0.00 | 0.00 | 95 | 1003.4 |
| 20260506185027 | 56 | 232 | 0.0 | 0.0 | 0.00 | 0.00 | 0.00 | 96 | 1003.3 |
| 20260506184541 | 56 | 232 | 0.9 | 0.0 | 0.00 | 0.00 | 0.00 | 96 | 1003.3 |
| 20260506184027 | 56 | 232 | 0.9 | 0.0 | 0.00 | 0.00 | 0.00 | 96 | 1003.3 |
| 20260506183530 | 56 | 231 | 0.0 | 0.0 | 0.00 | 0.00 | 0.00 | 96 | 1003.2 |
| 20260506183037 | 56 | 230 | 0.0 | 0.0 | 0.00 | 0.00 | 0.00 | 96 | 1003.3 |
| 20260506182525 | 56 | 230 | 0.9 | 0.0 | 0.00 | 0.00 | 0.00 | 96 | 1003.3 |
| 20260506182026 | 56 | 230 | 0.9 | 0.0 | 0.00 | 0.00 | 0.00 | 96 | 1003.3 |
| 20260506181536 | 56 | 241 | 1.7 | 0.0 | 0.00 | 0.00 | 0.00 | 96 | 1003.4 |
| 20260506181028 | 56 | 253 | 4.3 | 0.0 | 0.00 | 0.00 | 0.00 | 96 | 1003.5 |
| 20260506180525 | 56 | 259 | 5.2 | 0.0 | 0.00 | 0.00 | 0.00 | 96 | 1003.6 |
| 20260506180031 | 57 | 255 | 3.5 | 0.0 | 0.00 | 0.00 | 0.00 | 96 | 1003.7 |
| 20260506175524 | 57 | 171 | 1.7 | 0.0 | 0.00 | 0.00 | 0.00 | 96 | 1003.5 |
| 20260506175024 | 57 | 209 | 3.5 | 0.0 | 0.00 | 0.00 | 0.00 | 96 | 1003.4 |
| 20260506174526 | 56 | 157 | 5.2 | 0.0 | 0.00 | 0.00 | 0.00 | 96 | 1003.4 |
| 20260506174024 | 56 | 140 | 5.2 | 0.0 | 0.00 | 0.00 | 0.00 | 96 | 1003.5 |
| 20260506173526 | 56 | 145 | 3.5 | 0.0 | 0.00 | 0.00 | 0.00 | 96 | 1003.4 |
| 20260506173023 | 56 | 132 | 3.5 | 0.0 | 0.00 | 0.00 | 0.00 | 96 | 1003.5 |
| 20260506172521 | 56 | 147 | 3.5 | 0.0 | 0.00 | 0.00 | 0.00 | 96 | 1003.5 |
| 20260506172021 | 56 | 222 | 3.5 | 0.0 | 0.00 | 0.00 | 0.00 | 96 | 1003.6 |
| 20260506171522 | 56 | 244 | 3.5 | 0.0 | 0.00 | 0.00 | 0.00 | 96 | 1003.7 |
| 20260506171021 | 56 | 260 | 1.7 | 0.0 | 0.00 | 0.00 | 0.00 | 96 | 1003.7 |
| 20260506170522 | 56 | 171 | 1.7 | 0.0 | 0.00 | 0.00 | 0.00 | 96 | 1003.6 |
| 20260506170022 | 56 | 163 | 0.9 | 0.0 | 0.00 | 0.00 | 0.00 | 96 | 1003.8 |
| 20260506165520 | 56 | 164 | 1.7 | 0.0 | 0.00 | 0.00 | 0.00 | 96 | 1003.7 |
| 20260506165023 | 56 | 157 | 1.7 | 0.0 | 0.00 | 0.00 | 0.00 | 96 | 1003.8 |
| 20260506164520 | 56 | 178 | 0.9 | 0.0 | 0.00 | 0.00 | 0.00 | 96 | 1003.8 |
| 20260506164019 | 56 | 200 | 0.9 | 0.0 | 0.00 | 0.00 | 0.00 | 96 | 1003.8 |
| 20260506163521 | 56 | 199 | 0.9 | 0.0 | 0.00 | 0.00 | 0.00 | 96 | 1003.8 |
| 20260506163021 | 56 | 176 | 0.9 | 0.0 | 0.00 | 0.00 | 0.00 | 96 | 1004.0 |
| 20260506162517 | 56 | 203 | 0.9 | 0.0 | 0.00 | 0.00 | 0.00 | 96 | 1004.1 |
| 20260506162020 | 56 | 196 | 1.7 | 0.0 | 0.00 | 0.00 | 0.00 | 97 | 1004.0 |
| 20260506161518 | 56 | 161 | 1.7 | 0.0 | 0.00 | 0.00 | 0.00 | 96 | 1004.1 |
| 20260506161017 | 56 | 228 | 0.9 | 0.0 | 0.00 | 0.00 | 0.00 | 97 | 1004.2 |
| 20260506160519 | 56 | 218 | 1.7 | 0.0 | 0.00 | 0.00 | 0.00 | 97 | 1004.2 |
| 20260506160020 | 55 | 225 | 1.7 | 0.0 | 0.00 | 0.00 | 0.00 | 97 | 1004.3 |
| 20260506155516 | 55 | 221 | 1.7 | 0.0 | 0.00 | 0.00 | 0.00 | 97 | 1004.3 |
| 20260506155017 | 55 | 208 | 2.6 | 0.0 | 0.00 | 0.00 | 0.00 | 97 | 1004.1 |
| 20260506154517 | 55 | 148 | 2.6 | 0.0 | 0.00 | 0.00 | 0.00 | 97 | 1004.0 |
| 20260506154016 | 55 | 143 | 3.5 | 0.0 | 0.00 | 0.00 | 0.00 | 97 | 1004.1 |
| 20260506153518 | 55 | 144 | 4.3 | 0.0 | 0.00 | 0.00 | 0.00 | 97 | 1004.3 |
| 20260506153020 | 54 | 123 | 4.3 | 0.0 | 0.00 | 0.00 | 0.00 | 97 | 1004.4 |
| 20260506152513 | 54 | 157 | 4.3 | 0.0 | 0.00 | 0.00 | 0.00 | 97 | 1004.4 |
| 20260506152015 | 54 | 140 | 5.2 | 0.0 | 0.00 | 0.00 | 0.00 | 97 | 1004.5 |
| 20260506151513 | 53 | 127 | 4.3 | 0.0 | 0.00 | 0.00 | 0.00 | 97 | 1004.6 |
| 20260506151011 | 52 | 130 | 1.7 | 0.0 | 0.00 | 0.00 | 0.00 | 96 | 1004.7 |
| 20260506150510 | 52 | 182 | 0.9 | 0.0 | 0.00 | 0.00 | 0.00 | 96 | 1004.8 |
| 20260506150010 | 52 | 205 | 0.0 | 0.0 | 0.00 | 0.00 | 0.00 | 96 | 1004.8 |
| 20260506145510 | 52 | 277 | 0.0 | 0.0 | 0.00 | 0.00 | 0.00 | 95 | 1005.0 |
| 20260506145008 | 52 | 277 | 0.0 | 0.0 | 0.00 | 0.00 | 0.00 | 95 | 1005.0 |
| 20260506144514 | 52 | 277 | 0.0 | 0.0 | 0.00 | 0.00 | 0.00 | 95 | 1005.0 |
| 20260506144008 | 52 | 277 | 0.9 | 0.0 | 0.00 | 0.00 | 0.00 | 95 | 1005.0 |
| 20260506143508 | 52 | 277 | 0.9 | 0.0 | 0.00 | 0.00 | 0.00 | 95 | 1005.1 |
| 20260506143009 | 52 | 277 | 0.0 | 0.0 | 0.00 | 0.00 | 0.00 | 95 | 1005.1 |
| 20260506142507 | 52 | 277 | 0.0 | 0.0 | 0.00 | 0.00 | 0.00 | 95 | 1005.3 |
| 20260506142007 | 52 | 277 | 0.0 | 0.0 | 0.00 | 0.00 | 0.00 | 95 | 1005.3 |
| 20260506141507 | 52 | 277 | 0.0 | 0.0 | 0.00 | 0.00 | 0.00 | 95 | 1005.4 |
| 20260506141009 | 52 | 277 | 0.0 | 0.0 | 0.00 | 0.00 | 0.00 | 95 | 1005.4 |
| 20260506140511 | 52 | 277 | 0.9 | 0.0 | 0.00 | 0.00 | 0.00 | 95 | 1005.5 |
| 20260506140006 | 52 | 277 | 0.9 | 0.0 | 0.00 | 0.00 | 0.00 | 95 | 1005.4 |
| 20260506135506 | 52 | 277 | 0.0 | 0.0 | 0.00 | 0.00 | 0.00 | 95 | 1005.4 |
| 20260506135006 | 52 | 277 | 0.0 | 0.0 | 0.00 | 0.00 | 0.00 | 95 | 1005.4 |
| 20260506134507 | 52 | 277 | 0.9 | 0.0 | 0.00 | 0.00 | 0.00 | 95 | 1005.4 |
| 20260506134011 | 52 | 277 | 0.9 | 0.0 | 0.00 | 0.00 | 0.00 | 95 | 1005.3 |
| 20260506133508 | 52 | 277 | 1.7 | 0.0 | 0.00 | 0.00 | 0.00 | 95 | 1005.3 |
| 20260506133005 | 52 | 277 | 2.6 | 0.0 | 0.00 | 0.00 | 0.00 | 95 | 1005.1 |
| 20260506132510 | 52 | 277 | 2.6 | 0.0 | 0.00 | 0.00 | 0.00 | 95 | 1005.2 |
| 20260506132005 | 52 | 277 | 3.5 | 0.0 | 0.00 | 0.00 | 0.00 | 95 | 1005.0 |
| 20260506131505 | 52 | 275 | 2.6 | 0.0 | 0.00 | 0.00 | 0.00 | 95 | 1005.2 |
| 20260506131005 | 52 | 270 | 2.6 | 0.0 | 0.00 | 0.00 | 0.00 | 95 | 1005.2 |
| 20260506130507 | 52 | 241 | 1.7 | 0.0 | 0.00 | 0.00 | 0.00 | 95 | 1005.4 |
| 20260506130005 | 52 | 113 | 1.7 | 0.0 | 0.00 | 0.00 | 0.00 | 95 | 1005.2 |
| 20260506125504 | 52 | 113 | 0.9 | 0.0 | 0.00 | 0.00 | 0.00 | 95 | 1005.1 |
| 20260506125005 | 52 | 114 | 0.0 | 0.0 | 0.00 | 0.00 | 0.00 | 95 | 1005.2 |
| 20260506124504 | 52 | 114 | 0.0 | 0.0 | 0.00 | 0.00 | 0.00 | 95 | 1005.2 |
| 20260506124006 | 52 | 114 | 0.0 | 0.0 | 0.00 | 0.00 | 0.00 | 95 | 1005.4 |
| 20260506123504 | 52 | 114 | 0.9 | 0.0 | 0.00 | 0.00 | 0.00 | 95 | 1005.4 |
| 20260506123004 | 52 | 114 | 1.7 | 0.0 | 0.00 | 0.00 | 0.00 | 95 | 1005.5 |
| 20260506122505 | 52 | 115 | 1.7 | 0.0 | 0.00 | 0.00 | 0.00 | 95 | 1005.5 |
| 20260506122004 | 52 | 116 | 1.7 | 0.0 | 0.00 | 0.00 | 0.00 | 95 | 1005.5 |
| 20260506121504 | 52 | 198 | 0.9 | 0.0 | 0.00 | 0.00 | 0.00 | 95 | 1005.6 |
| 20260506121003 | 52 | 198 | 1.7 | 0.0 | 0.00 | 0.00 | 0.00 | 95 | 1005.6 |
| 20260506120503 | 52 | 245 | 0.9 | 0.0 | 0.00 | 0.00 | 0.00 | 95 | 1005.8 |
| 20260506120008 | 52 | 246 | 0.9 | 0.0 | 0.00 | 0.00 | 0.00 | 95 | 1006.1 |
| 20260506115503 | 52 | 234 | 1.7 | 0.0 | 0.00 | 0.00 | 0.00 | 95 | 1005.9 |
| 20260506115001 | 52 | 234 | 1.7 | 0.0 | 0.00 | 0.00 | 0.00 | 95 | 1006.0 |
| 20260506114504 | 51 | 225 | 0.9 | 0.0 | 0.00 | 0.00 | 0.00 | 95 | 1006.0 |
| 20260506114003 | 52 | 223 | 2.6 | 0.0 | 0.00 | 0.00 | 0.00 | 95 | 1005.7 |
| 20260506113502 | 51 | 221 | 3.5 | 0.0 | 0.00 | 0.00 | 0.00 | 95 | 1005.7 |
| 20260506113100 | 51 | 244 | 2.6 | 0.0 | 0.00 | 0.00 | 0.00 | 95 | 1005.7 |
| 20260506112600 | 51 | 242 | 2.6 | 0.0 | 0.00 | 0.00 | 0.00 | 95 | 1005.6 |
| 20260506112059 | 51 | 219 | 1.7 | 0.0 | 0.00 | 0.00 | 0.00 | 95 | 1005.5 |
| 20260506111559 | 51 | 207 | 0.9 | 0.0 | 0.00 | 0.00 | 0.00 | 95 | 1005.5 |
| 20260506111059 | 51 | 205 | 0.0 | 0.0 | 0.00 | 0.00 | 0.00 | 94 | 1005.5 |
| 20260506110559 | 51 | 200 | 0.0 | 0.0 | 0.00 | 0.00 | 0.00 | 95 | 1005.5 |
| 20260506110059 | 51 | 200 | 0.0 | 0.0 | 0.00 | 0.00 | 0.00 | 94 | 1005.5 |
| 20260506105559 | 51 | 200 | 0.0 | 0.0 | 0.00 | 0.00 | 0.00 | 95 | 1005.4 |
| 20260506105059 | 51 | 200 | 0.0 | 0.0 | 0.00 | 0.00 | 0.00 | 94 | 1005.4 |
| 20260506104601 | 51 | 200 | 0.0 | 0.0 | 0.00 | 0.00 | 0.00 | 94 | 1005.5 |
| 20260506104058 | 51 | 200 | 0.0 | 0.0 | 0.00 | 0.00 | 0.00 | 94 | 1005.5 |
| 20260506103558 | 51 | 200 | 0.0 | 0.0 | 0.00 | 0.00 | 0.00 | 94 | 1005.5 |
| 20260506103058 | 51 | 200 | 0.9 | 0.0 | 0.00 | 0.00 | 0.00 | 94 | 1005.8 |
| 20260506102558 | 51 | 200 | 1.7 | 0.0 | 0.00 | 0.00 | 0.00 | 94 | 1005.9 |
| 20260506102059 | 51 | 125 | 1.7 | 0.0 | 0.00 | 0.00 | 0.00 | 94 | 1005.8 |
| 20260506101556 | 51 | 132 | 1.7 | 0.0 | 0.00 | 0.00 | 0.00 | 94 | 1005.7 |
| 20260506101056 | 51 | 222 | 1.7 | 0.0 | 0.00 | 0.00 | 0.00 | 94 | 1005.7 |
| 20260506100556 | 51 | 127 | 0.9 | 0.0 | 0.00 | 0.00 | 0.00 | 94 | 1005.6 |
| 20260506100056 | 51 | 182 | 0.9 | 0.0 | 0.00 | 0.00 | 0.00 | 94 | 1005.6 |
| 20260506095556 | 51 | 246 | 0.9 | 0.0 | 0.00 | 0.00 | 0.00 | 94 | 1005.7 |
| 20260506095056 | 51 | 246 | 1.7 | 0.0 | 0.00 | 0.00 | 0.00 | 94 | 1005.6 |
| 20260506094556 | 51 | 243 | 0.9 | 0.0 | 0.00 | 0.00 | 0.00 | 94 | 1005.6 |
| 20260506094058 | 51 | 249 | 0.9 | 0.0 | 0.00 | 0.00 | 0.00 | 94 | 1005.5 |
| 20260506093555 | 51 | 249 | 0.9 | 0.0 | 0.00 | 0.00 | 0.00 | 94 | 1005.2 |
| 20260506093054 | 51 | 249 | 0.9 | 0.0 | 0.00 | 0.00 | 0.00 | 94 | 1005.1 |
| 20260506092553 | 51 | 250 | 0.0 | 0.0 | 0.00 | 0.00 | 0.00 | 93 | 1005.2 |
| 20260506092053 | 52 | 250 | 0.0 | 0.0 | 0.00 | 0.00 | 0.00 | 93 | 1005.4 |
| 20260506091559 | 52 | 250 | 0.0 | 0.0 | 0.00 | 0.00 | 0.00 | 93 | 1005.5 |
| 20260506091054 | 52 | 250 | 0.0 | 0.0 | 0.00 | 0.00 | 0.00 | 94 | 1005.4 |